Location: Grasslands National Park East Block
(49.0708°N, 106.5295°W)
Time: 16:20:41
(UTC-06:00)

Vanguard 1 Rocket - Pass Details

Date: 26 September 2019
Orbit: 650 x 4226 km, 34.3° (Epoch: 13 October)

Event Time Altitude Azimuth Distance (km) Brightness Sun altitude
Rises 20:57:14 0° 266° (W) 8,110 13.3 -20.3°
Reaches altitude 10° 21:03:49 10° 261° (W) 6,688 12.6 -21.3°
Maximum altitude 21:21:03 40° 202° (SSW) 3,239 10.0 -23.8°
Enters shadow 21:26:50 27° 156° (SSE) 3,218 9.7 -24.7°
Drops below altitude 10° 21:30:48 10° 137° (SE) 3,846 - -25.2°
Sets 21:33:28 0° 129° (SE) 4,477 - -25.6°
